When you browse on this site, cookies collect data to enhance your experience and personalize the content and advertising you see.
Visit our Privacy Policy to learn more. By continuing to use the site, you agree to this use of cookies and data.

Hourly Weather Quillota

Today, 21 September, Monday

Time Temperature Precipitation Wind Pressure Humidity
00:00 +11°C° 0 mm 0 mps 752 mmHg 94%
01:00 +11°C° 0 mm 0 mps 752 mmHg 93%
02:00 +11°C° 0 mm 0 mps 752 mmHg 93%
03:00 +11°C° 0 mm 0 mps 751 mmHg 93%
04:00 +11°C° 0 mm 0 mps 751 mmHg 93%
05:00 +13°C° 0 mm 0 mps 751 mmHg 88%
06:00 +15°C° 0 mm 0 mps 752 mmHg 82%
07:00 +17°C° 0 mm 0 mps 752 mmHg 76%
08:00 +21°C° 0 mm 1 mps 752 mmHg 69%
09:00 +23°C° 0 mm 2 mps 752 mmHg 61%
10:00 +26°C° 0 mm 2 mps 751 mmHg 53%
11:00 +26°C° 0 mm 2 mps 751 mmHg 53%
12:00 +26°C° 0 mm 3 mps 751 mmHg 53%
13:00 +27°C° 0 mm 3 mps 751 mmHg 52%
14:00 +26°C° 0 mm 3 mps 751 mmHg 56%
15:00 +25°C° 0 mm 2 mps 751 mmHg 60%
16:00 +23°C° 0 mm 2 mps 751 mmHg 63%
17:00 +21°C° 0 mm 1 mps 751 mmHg 72%
18:00 +18°C° 0 mm 1 mps 751 mmHg 82%
19:00 +13°C° 0 mm 0 mps 752 mmHg 91%
20:00 +13°C° 0 mm 0 mps 752 mmHg 92%
21:00 +13°C° 0 mm 0 mps 752 mmHg 92%
22:00 +12°C° 0 mm 0 mps 752 mmHg 92%
23:00 +13°C° 0 mm 0 mps 752 mmHg 92%

Tomorrow, 22 September, Tuesday

Time Temperature Precipitation Wind Pressure Humidity
00:00 +13°C° 0 mm 0 mps 752 mmHg 92%
01:00 +13°C° 0 mm 0 mps 751 mmHg 92%
02:00 +12°C° 0 mm 0 mps 751 mmHg 92%
03:00 +12°C° 0 mm 0 mps 751 mmHg 92%
04:00 +12°C° 0 mm 0 mps 751 mmHg 92%
05:00 +15°C° 0 mm 1 mps 751 mmHg 86%
06:00 +18°C° 0 mm 1 mps 751 mmHg 80%
07:00 +20°C° 0 mm 1 mps 752 mmHg 75%
08:00 +22°C° 0 mm 1 mps 752 mmHg 67%
09:00 +24°C° 0 mm 2 mps 752 mmHg 60%
10:00 +26°C° 0 mm 2 mps 751 mmHg 53%
11:00 +27°C° 0 mm 2 mps 751 mmHg 48%
12:00 +28°C° 0 mm 2 mps 751 mmHg 43%
13:00 +29°C° 0 mm 3 mps 751 mmHg 39%
14:00 +28°C° 0 mm 3 mps 751 mmHg 42%
15:00 +27°C° 0 mm 3 mps 751 mmHg 46%
16:00 +26°C° 0 mm 3 mps 751 mmHg 50%
17:00 +23°C° 0 mm 2 mps 751 mmHg 61%
18:00 +19°C° 0 mm 1 mps 751 mmHg 73%
19:00 +15°C° 0 mm 1 mps 752 mmHg 85%
20:00 +15°C° 0 mm 1 mps 752 mmHg 84%
21:00 +15°C° 0 mm 1 mps 752 mmHg 84%
22:00 +14°C° 0 mm 1 mps 752 mmHg 84%
23:00 +14°C° 0 mm 1 mps 752 mmHg 84%

Day after tomorrow, 23 September, Wednesday

Time Temperature Precipitation Wind Pressure Humidity
00:00 +14°C° 0 mm 1 mps 752 mmHg 83%
01:00 +13°C° 0 mm 1 mps 751 mmHg 82%
02:00 +13°C° 0 mm 1 mps 751 mmHg 81%
03:00 +13°C° 0 mm 1 mps 751 mmHg 80%
04:00 +13°C° 0 mm 1 mps 751 mmHg 79%
05:00 +15°C° 0 mm 1 mps 751 mmHg 72%
06:00 +18°C° 0 mm 1 mps 751 mmHg 66%
07:00 +21°C° 0 mm 1 mps 751 mmHg 59%
08:00 +23°C° 0 mm 1 mps 751 mmHg 53%
09:00 +25°C° 0 mm 1 mps 751 mmHg 46%
10:00 +27°C° 0 mm 2 mps 751 mmHg 39%
11:00 +28°C° 0 mm 2 mps 751 mmHg 37%
12:00 +28°C° 0 mm 2 mps 751 mmHg 35%
13:00 +29°C° 0 mm 3 mps 751 mmHg 33%
14:00 +28°C° 0 mm 2 mps 751 mmHg 37%
15:00 +27°C° 0 mm 2 mps 750 mmHg 41%
16:00 +25°C° 0 mm 2 mps 750 mmHg 44%
17:00 +21°C° 0 mm 2 mps 751 mmHg 57%
18:00 +19°C° 0 mm 1 mps 751 mmHg 69%
19:00 +14°C° 0 mm 0 mps 751 mmHg 81%
20:00 +13°C° 0 mm 0 mps 751 mmHg 83%
21:00 +12°C° 0 mm 0 mps 751 mmHg 84%
22:00 +12°C° 0 mm 0 mps 751 mmHg 85%
23:00 +11°C° 0 mm 0 mps 751 mmHg 86%

24 September, Thursday

Time Temperature Precipitation Wind Pressure Humidity
00:00 +11°C° 0 mm 0 mps 751 mmHg 86%
01:00 +11°C° 0 mm 0 mps 751 mmHg 87%
02:00 +10°C° 0 mm 0 mps 751 mmHg 87%
03:00 +10°C° 0 mm 0 mps 751 mmHg 87%
04:00 +10°C° 0 mm 0 mps 750 mmHg 87%
05:00 +11°C° 0 mm 0 mps 751 mmHg 83%
06:00 +13°C° 0 mm 0 mps 751 mmHg 78%
07:00 +14°C° 0 mm 0 mps 752 mmHg 74%
08:00 +18°C° 0 mm 1 mps 752 mmHg 67%
09:00 +19°C° 0 mm 2 mps 752 mmHg 60%
10:00 +21°C° 0 mm 3 mps 752 mmHg 53%
11:00 +21°C° 0 mm 3 mps 752 mmHg 52%
12:00 +22°C° 0 mm 3 mps 752 mmHg 52%
13:00 +22°C° 0 mm 4 mps 752 mmHg 51%
14:00 +21°C° 0 mm 4 mps 752 mmHg 56%
15:00 +19°C° 0 mm 3 mps 753 mmHg 60%
16:00 +18°C° 0 mm 3 mps 753 mmHg 65%
17:00 +15°C° 0 mm 2 mps 753 mmHg 75%
18:00 +13°C° 0 mm 2 mps 753 mmHg 85%
19:00 +10°C° 0 mm 1 mps 754 mmHg 96%
20:00 +10°C° 0 mm 1 mps 754 mmHg 96%
21:00 +10°C° 0 mm 1 mps 754 mmHg 95%
22:00 +10°C° 0 mm 1 mps 754 mmHg 95%
23:00 +10°C° 0 mm 1 mps 754 mmHg 95%

25 September, Friday

Time Temperature Precipitation Wind Pressure Humidity
00:00 +9°C° 0 mm 1 mps 754 mmHg 94%
01:00 +9°C° 0 mm 1 mps 754 mmHg 94%
02:00 +9°C° 0 mm 1 mps 754 mmHg 93%
03:00 +10°C° 0 mm 1 mps 754 mmHg 92%
04:00 +10°C° 0 mm 1 mps 753 mmHg 92%
05:00 +10°C° 0 mm 1 mps 754 mmHg 89%
06:00 +11°C° 0 mm 1 mps 754 mmHg 86%
07:00 +12°C° 0 mm 1 mps 754 mmHg 83%
08:00 +14°C° 0 mm 2 mps 754 mmHg 74%
09:00 +16°C° 0 mm 2 mps 754 mmHg 65%
10:00 +18°C° 0 mm 3 mps 754 mmHg 56%
11:00 +19°C° 0 mm 3 mps 754 mmHg 50%
12:00 +20°C° 0 mm 3 mps 754 mmHg 44%
13:00 +21°C° 0 mm 4 mps 754 mmHg 38%
14:00 +21°C° 0 mm 4 mps 754 mmHg 42%
15:00 +20°C° 0 mm 4 mps 754 mmHg 46%
16:00 +20°C° 0 mm 3 mps 754 mmHg 50%
17:00 +17°C° 0 mm 3 mps 754 mmHg 62%
18:00 +13°C° 0 mm 2 mps 754 mmHg 75%
19:00 +10°C° 0 mm 1 mps 754 mmHg 88%
20:00 +10°C° 0 mm 1 mps 753 mmHg 85%
21:00 +10°C° 0 mm 1 mps 753 mmHg 82%
22:00 +10°C° 0 mm 1 mps 753 mmHg 79%
23:00 +10°C° 0 mm 1 mps 752 mmHg 79%

26 September, Saturday

Time Temperature Precipitation Wind Pressure Humidity
00:00 +10°C° 0 mm 1 mps 752 mmHg 78%
01:00 +10°C° 0 mm 1 mps 751 mmHg 78%
02:00 +10°C° 0 mm 1 mps 751 mmHg 78%
03:00 +9°C° 0 mm 1 mps 750 mmHg 77%
04:00 +9°C° 0 mm 1 mps 750 mmHg 77%
05:00 +11°C° 0 mm 1 mps 750 mmHg 70%
06:00 +12°C° 0 mm 0 mps 750 mmHg 63%
07:00 +14°C° 0 mm 0 mps 750 mmHg 56%
08:00 +18°C° 0 mm 1 mps 750 mmHg 52%
09:00 +19°C° 0 mm 2 mps 750 mmHg 48%
10:00 +21°C° 0 mm 2 mps 750 mmHg 44%
11:00 +21°C° 0 mm 2 mps 750 mmHg 44%
12:00 +22°C° 0 mm 3 mps 750 mmHg 45%
13:00 +22°C° 0 mm 3 mps 750 mmHg 45%
14:00 +21°C° 0 mm 3 mps 750 mmHg 49%
15:00 +20°C° 0 mm 3 mps 751 mmHg 53%
16:00 +19°C° 0 mm 2 mps 751 mmHg 57%
17:00 +16°C° 0 mm 2 mps 751 mmHg 69%
18:00 +13°C° 0 mm 1 mps 751 mmHg 81%
19:00 +10°C° 0 mm 1 mps 752 mmHg 93%
20:00 +9°C° 0 mm 1 mps 752 mmHg 93%
21:00 +8°C° 0 mm 0 mps 752 mmHg 93%
22:00 +7°C° 0 mm 0 mps 753 mmHg 94%
23:00 +7°C° 0 mm 0 mps 752 mmHg 94%
Show more